CDT,Max TemperatureF,Mean TemperatureF,Min TemperatureF,Max Dew PointF,MeanDew PointF,Min DewpointF,Max Humidity, Mean Humidity, Min Humidity, Max Sea Level PressureIn, Mean Sea Level PressureIn, Min Sea Level PressureIn, Max VisibilityMiles, Mean VisibilityMiles, Min VisibilityMiles, Max Wind SpeedMPH, Mean Wind SpeedMPH, Max Gust SpeedMPH,PrecipitationIn, CloudCover, Events, WindDirDegrees
2013-9-1,96,84,71,74,71,69,87,65,43,29.92,29.87,29.83,10,8,4,16,3,21,T,2,Rain,135
2013-9-2,86,80,74,73,71,69,94,78,61,29.97,29.90,29.84,10,10,7,22,5,30,T,4,Rain-Thunderstorm,205
2013-9-3,92,80,67,71,66,59,93,65,36,30.01,29.95,29.91,10,10,9,15,6,24,0.00,1,,34
2013-9-4,92,78,64,66,62,57,93,64,34,30.10,30.05,29.99,10,10,9,13,5,16,0.00,0,,46
2013-9-5,92,78,64,65,62,60,93,65,36,30.15,30.10,30.06,10,9,6,9,4,13,0.00,0,,60
2013-9-6,92,79,65,65,62,58,93,63,32,30.14,30.09,30.03,10,10,7,9,2,18,0.00,0,,53
2013-9-7,94,80,66,70,66,62,93,65,36,30.09,30.03,29.97,10,10,9,9,3,12,0.00,0,,148
2013-9-8,96,83,69,69,67,65,90,65,39,30.01,29.97,29.91,10,9,4,9,3,15,0.00,0,,192
2013-9-9,96,80,64,71,68,51,90,67,43,30.06,30.00,29.95,10,9,6,9,2,10,0.00,1,Thunderstorm,194
2013-9-10,97,85,73,73,71,68,87,66,44,30.14,30.10,30.04,10,9,5,12,3,13,0.00,1,Rain-Thunderstorm,131
2013-9-11,93,82,71,72,68,64,93,66,39,30.18,30.12,30.06,10,9,4,12,3,15,0.00,0,,168
2013-9-12,96,83,69,70,65,32,90,63,36,30.08,30.01,29.92,10,10,9,10,3,12,0.00,1,,250
2013-9-13,88,76,63,70,61,52,93,64,34,29.99,29.94,29.89,10,10,7,15,9,15,0.00,2,,12
2013-9-14,80,67,54,54,50,46,93,63,32,30.06,30.02,29.98,10,10,10,9,7,9,0.00,0,,17
2013-9-15,89,71,52,57,52,50,96,62,27,30.11,30.06,30.04,10,10,10,8,1,8,0.00,0,,242
2013-9-16,93,76,59,63,58,54,90,59,28,30.14,30.09,30.05,10,10,10,8,3,8,0.00,0,,360
2013-9-17,91,78,64,65,62,58,93,64,34,30.14,30.09,30.02,10,10,10,10,4,14,0.00,0,,84
2013-9-18,83,77,71,69,67,66,84,74,63,30.15,30.09,30.04,10,10,9,13,5,18,0.00,4,,176
2013-9-19,91,80,69,68,65,63,90,66,41,30.12,30.05,29.99,10,10,9,13,6,17,0.00,0,,178
2013-9-20,87,78,69,74,70,64,94,75,55,30.01,29.89,29.81,10,6,1,15,6,20,1.87,6,Rain,199
2013-9-21,79,69,58,72,63,51,100,72,43,29.88,29.82,29.76,10,8,2,22,9,26,0.54,5,Rain,29
2013-9-22,79,66,53,55,52,49,93,65,37,29.92,29.88,29.84,10,10,10,17,8,22,0.00,0,,42
2013-9-23,84,69,54,61,57,52,93,67,40,29.95,29.90,29.88,10,10,10,12,4,15,0.00,0,,73
2013-9-24,74,70,66,70,68,61,97,89,81,29.94,29.87,29.81,10,8,2,14,4,17,0.36,7,Rain-Thunderstorm,144
2013-9-25,87,78,68,70,68,65,97,76,55,29.83,29.81,29.76,10,9,6,7,2,10,0.00,6,,195
2013-9-26,80,72,64,68,66,64,93,78,62,29.99,29.93,29.83,10,9,2,8,2,12,0.00,3,,124
2013-9-27,85,73,61,66,62,57,100,70,40,30.10,30.03,29.99,10,5,0,12,4,16,0.00,1,,107
2013-9-28,82,71,60,60,58,56,90,66,42,30.15,30.09,30.04,10,10,10,14,4,17,0.00,0,,172
2013-9-29,75,68,60,64,60,56,93,74,54,30.08,30.03,29.97,10,10,6,14,6,18,0.04,6,Rain,191
2013-9-30,74,70,65,64,64,62,93,83,73,30.03,29.99,29.95,10,7,2,13,6,18,0.27,7,Rain,179